Вернуться в каталог

GUANGCHUAN 02

АктивенСвязьVLEO
NORAD 62112·PAYLOAD·🇨🇳 China

Запущен Nov 27, 2024 с Jiuquan Satellite Launch Center

Loading…

Ближайшие Пролёты (ближайшие 24 часа)

TLE

СвежийSource: Space-Track

Эпоха: Sep 14, 2026, 22:51 UTC

1 62112U 24221B   26257.95237173  .00002184  00000-0  13381-3 0  9996
2 62112  49.9417  84.9457 0005945 348.6719  11.4097 15.14334631 99782

Отслеживайте GUANGCHUAN 02 в реальном времени с AllMySat

Download on the App Store